Theta_e
324 325 326 327 327 327 327 328 328 330 331 331 331 331 331 330 330 330 331 331 332 332 331 330 329 329 330 329 329 331 331 333 332 332 334 335 336 335 334 333 334 334 334 334 333 329 331 331 332 332 332 330 329 329 330 330 329 329 327 325 324 324 323 323 324 324 322 320 321 321 320 320 321 322 321 318 320 321 317 312 312 310 310 309 308
322 320 322 324 325 326 326 326 324 326 328 329 330 331 331 331 331 331 331 331 332 332 332 331 331 331 330 329 329 330 331 331 332 333 334 335 336 335 335 334 335 334 333 335 333 332 331 331 331 331 332 330 330 331 330 325 327 326 325 323 322 322 322 323 323 322 319 315 314 315 316 318 319 320 319 315 320 320 315 313 312 309 309 308 307
318 319 320 321 324 325 325 326 326 327 328 328 329 330 331 331 332 332 333 332 332 333 332 331 332 333 333 333 332 332 335 336 336 335 335 335 336 336 335 335 335 334 334 334 333 333 332 332 331 331 332 331 329 328 328 327 327 325 323 323 320 322 321 321 321 321 317 317 317 314 312 312 316 318 319 315 316 316 312 311 311 309 309 309 307
314 316 317 319 321 323 324 325 326 327 327 328 328 328 329 330 331 332 332 333 333 333 331 334 333 334 335 335 335 335 334 335 336 337 336 335 335 336 336 335 334 333 334 334 333 334 333 331 331 331 331 331 329 329 328 327 327 325 323 323 323 320 320 319 320 321 318 315 311 309 310 310 307 310 308 312 312 312 310 309 309 308 306 304 304
313 314 316 317 317 320 322 324 325 325 327 328 328 328 328 329 331 332 332 333 333 333 332 333 333 332 333 333 334 332 330 332 331 331 332 333 333 333 334 335 335 334 334 334 333 333 333 332 332 331 331 331 330 329 328 327 327 326 325 324 323 322 320 320 318 319 318 318 314 312 310 308 303 306 306 309 309 306 309 311 310 307 302 301 302
310 312 314 315 315 317 320 322 324 325 326 328 329 329 329 329 330 331 332 333 333 334 333 332 331 330 329 326 324 325 325 326 325 327 328 328 329 332 334 335 335 335 334 335 334 333 332 332 332 331 331 330 329 328 327 325 324 323 324 323 322 323 321 319 315 316 318 317 317 315 313 309 306 305 306 296 304 305 304 304 305 304 301 301 302
307 308 310 312 313 314 316 319 322 323 325 327 329 329 329 329 330 330 331 331 333 333 333 331 331 331 329 328 327 326 326 327 330 332 332 331 331 332 334 336 336 334 334 333 333 333 332 332 331 330 329 328 325 324 323 323 323 323 323 323 322 321 319 316 315 315 315 315 315 314 313 313 312 307 302 301 295 300 303 300 301 303 300 300 300
306 306 306 308 310 311 312 315 318 321 324 327 328 329 328 329 329 330 330 330 332 333 333 332 331 330 329 329 328 328 328 329 330 332 333 333 332 332 333 334 334 333 333 333 332 332 331 330 329 327 326 325 323 324 324 323 322 321 322 322 321 320 318 316 315 315 312 312 312 311 310 310 310 309 308 296 293 292 296 302 304 302 300 299 299
305 307 306 305 306 309 310 313 315 319 322 324 326 328 329 329 329 329 329 329 330 331 331 331 330 331 330 329 328 329 330 331 331 331 331 333 333 332 331 329 330 331 331 331 330 330 328 329 328 326 325 323 323 323 322 323 322 321 320 320 319 318 316 315 314 313 314 312 308 307 307 306 306 305 303 298 296 297 296 296 296 299 300 301 299
305 304 306 307 306 307 309 311 313 315 319 323 325 326 327 328 327 327 328 328 329 330 330 331 331 330 330 330 329 328 329 330 331 330 330 332 331 330 328 326 324 324 327 329 329 329 329 329 327 326 326 322 319 321 321 321 320 318 318 318 318 316 315 314 313 313 312 310 309 306 304 305 304 303 302 297 300 298 292 293 295 295 293 295 299
304 304 304 305 307 306 306 305 307 311 316 318 320 322 325 326 326 326 327 328 329 329 329 329 330 330 330 330 329 329 329 329 328 327 328 328 328 327 326 324 322 322 323 324 326 326 326 326 326 326 325 322 321 321 320 319 316 315 312 313 314 314 312 310 309 309 307 306 305 305 304 304 301 298 299 298 297 295 294 293 294 295 293 293 297
303 303 303 303 303 303 303 303 304 307 311 314 317 320 322 324 325 325 325 326 327 327 328 328 329 329 330 330 330 330 329 328 326 325 326 325 327 325 324 322 320 320 321 321 318 319 320 320 320 320 319 318 318 319 317 316 316 315 312 311 311 310 309 309 308 306 305 304 304 304 303 303 301 300 299 299 298 295 294 293 293 293 294 296 297
301 302 303 303 302 302 302 302 304 306 308 310 314 317 320 322 323 323 324 325 325 327 327 327 328 329 329 329 330 330 330 329 327 327 326 326 326 324 320 317 316 315 316 317 317 314 313 313 314 314 314 316 316 316 315 315 314 313 310 309 308 309 309 308 305 304 304 302 301 301 301 301 300 299 300 298 299 297 296 292 293 294 290 292 295
299 300 301 302 303 303 303 303 303 305 307 310 312 315 318 320 321 322 323 324 325 326 326 326 327 328 329 329 330 330 329 329 328 327 327 327 327 324 320 318 315 315 316 318 317 314 313 315 315 314 314 313 314 315 314 312 311 310 309 308 307 304 304 304 303 302 302 302 301 299 299 298 297 299 298 298 296 295 292 291 291 292 293 292 294
299 298 299 299 300 300 302 303 304 304 305 307 311 313 316 318 320 321 322 324 324 324 325 325 326 327 328 328 329 330 330 329 328 328 327 327 326 324 320 319 317 317 317 318 315 314 314 313 313 312 311 312 313 311 311 310 310 308 306 305 302 302 302 301 300 300 300 300 299 297 296 296 296 296 297 296 296 295 294 292 291 288 289 291 291
300 300 300 300 301 302 302 303 304 305 305 307 308 312 315 316 318 320 321 323 324 323 323 324 325 326 327 327 328 329 329 328 327 327 327 327 326 323 321 319 319 320 318 315 312 311 309 308 309 312 312 311 311 310 309 307 305 303 302 301 300 300 299 299 298 299 298 298 297 296 295 294 295 295 295 294 294 295 295 294 293 290 288 285 289
301 302 303 303 303 303 303 303 304 305 305 306 308 310 312 315 316 318 320 322 322 322 323 323 324 325 325 326 327 328 327 326 326 326 327 327 326 324 323 322 320 320 314 312 309 308 306 307 308 310 313 312 308 308 308 306 304 302 301 299 298 298 297 297 296 296 296 296 295 296 294 294 293 294 293 293 293 294 294 293 294 290 289 288 285
302 303 304 305 305 304 304 304 305 305 305 305 306 309 311 313 314 315 317 318 320 320 320 322 322 323 324 325 325 326 326 326 326 326 327 325 325 323 322 319 319 314 310 309 308 305 305 305 308 310 312 307 307 306 305 303 302 300 299 297 297 297 296 295 296 295 295 294 294 294 293 292 293 293 292 292 293 292 291 292 291 291 291 288 287
303 303 305 304 303 303 303 303 303 303 304 306 307 307 308 310 312 313 314 317 318 318 319 321 322 322 323 323 324 325 326 326 326 326 326 324 323 321 317 317 314 308 306 304 305 303 303 304 304 304 304 305 305 303 302 301 299 297 296 295 295 295 294 293 294 294 293 293 292 292 292 291 292 291 291 291 291 292 291 291 291 292 290 291 288
303 303 303 303 303 303 302 301 300 300 302 303 304 305 306 308 310 311 314 316 316 316 317 318 320 321 321 322 323 324 324 324 324 324 323 322 321 318 315 313 307 306 304 304 303 301 302 302 302 303 303 302 301 300 299 298 297 296 294 294 294 294 293 292 292 292 293 293 292 291 291 290 291 291 290 290 290 290 290 290 290 290 290 289 288
302 302 301 302 302 302 301 300 300 300 301 302 303 304 306 308 309 311 311 312 313 313 314 316 318 318 318 319 320 321 322 323 323 323 322 321 319 315 314 312 307 304 304 302 302 301 301 300 301 301 300 299 298 297 297 296 296 295 295 294 293 293 292 291 291 291 292 292 291 290 290 289 290 290 289 289 289 289 289 289 289 289 288 289 287
300 301 300 301 301 302 302 300 299 299 300 302 304 305 306 306 307 309 311 311 311 312 312 313 314 316 317 318 318 319 320 320 320 321 319 318 316 314 311 307 305 300 300 300 300 300 300 299 300 300 299 298 297 296 295 295 294 294 293 293 293 293 292 291 291 290 291 291 290 289 288 288 289 289 289 288 289 288 289 288 288 288 287 287 288
298 299 300 301 301 301 301 300 298 299 301 304 305 305 305 306 306 307 307 308 310 311 311 312 312 313 314 315 315 314 315 315 315 313 313 311 311 308 305 305 300 297 298 298 298 298 299 299 299 298 298 296 296 295 295 295 294 293 292 292 293 292 291 291 290 290 289 290 290 289 288 288 288 288 288 288 288 288 288 288 287 288 287 287 287
297 298 299 300 299 298 297 298 298 298 301 303 305 305 306 306 306 307 306 307 308 309 309 309 310 311 312 311 311 310 309 309 310 308 307 305 303 301 301 302 298 297 297 295 296 296 297 297 297 296 296 295 294 293 293 293 293 292 292 291 292 292 292 291 291 289 289 290 289 288 287 288 288 287 287 287 287 288 287 287 287 287 287 286 286
297 298 299 299 298 297 298 300 301 300 300 303 304 304 305 306 306 306 306 307 307 308 308 308 308 307 306 307 307 307 307 306 306 304 302 299 298 298 298 299 298 298 295 294 295 295 296 297 296 295 294 293 293 292 292 292 292 292 292 291 291 291 291 290 290 289 288 289 288 287 287 287 287 287 286 286 286 286 287 287 286 286 286 285 285
297 298 297 298 299 299 299 300 301 301 301 301 302 303 304 305 306 306 305 303 303 304 305 305 305 305 304 304 304 304 304 304 302 299 297 296 296 297 297 296 298 296 295 293 294 294 295 296 295 294 293 292 291 291 291 291 291 291 291 291 291 290 289 289 288 288 288 288 287 287 286 286 287 287 286 286 286 285 286 286 285 285 285 285 285
297 297 298 297 297 297 298 299 300 300 300 300 300 302 302 302 302 303 303 302 301 302 303 303 302 304 301 302 301 302 302 300 298 296 295 294 294 294 294 295 295 295 295 292 293 294 294 294 293 292 291 291 290 290 290 290 290 290 290 290 289 289 288 288 287 287 287 287 287 286 286 286 286 286 286 286 286 285 285 285 285 284 284 284 284
298 297 297 297 298 299 299 299 299 299 298 299 299 301 301 300 300 299 300 300 300 301 301 301 301 301 300 299 299 298 297 296 295 294 294 294 294 293 293 293 292 293 293 293 292 292 292 292 292 291 290 290 289 289 290 289 290 290 289 289 289 288 287 287 286 286 286 286 286 285 285 285 286 286 286 286 286 285 285 284 285 284 284 284 284
299 300 300 299 299 300 299 299 299 298 297 297 297 297 298 299 300 299 299 299 299 299 298 298 298 298 298 298 295 294 295 295 293 293 293 293 293 293 292 291 291 291 292 291 291 291 290 290 289 289 289 289 289 289 290 289 289 289 289 289 288 287 287 286 285 285 285 285 285 285 285 285 284 282 282 283 283 283 285 284 284 284 284 283 283
301 302 302 301 300 300 300 300 299 298 298 297 297 297 297 298 298 298 297 298 296 297 297 296 296 296 295 295 296 294 293 292 291 292 293 291 291 291 291 291 291 291 291 290 289 289 289 288 287 287 288 289 289 289 287 288 289 289 289 289 288 288 287 286 285 284 284 284 284 284 283 281 281 281 281 281 282 282 282 283 283 284 283 282 281
301 303 302 301 300 300 300 299 299 298 298 297 297 297 298 298 298 296 296 295 295 294 295 295 295 294 293 293 293 293 293 291 292 291 290 290 290 289 289 289 289 288 288 288 288 288 287 287 287 287 287 288 288 287 287 289 289 289 288 288 287 287 287 286 285 284 283 282 283 283 282 281 281 281 281 280 281 281 282 282 282 282 283 282 281
301 302 302 300 300 300 299 299 299 299 298 298 297 297 297 297 297 296 296 293 294 294 294 294 294 293 292 291 291 290 292 291 290 290 289 289 288 288 288 288 287 287 286 287 287 287 286 287 287 287 287 287 287 287 288 288 288 288 288 288 287 287 286 285 284 284 283 283 282 282 282 282 282 282 282 281 281 281 282 282 282 282 282 281 282
301 301 301 302 300 301 301 301 300 299 299 298 298 297 297 297 296 297 295 293 293 294 295 294 293 292 292 292 291 290 290 290 290 289 289 288 288 287 286 286 286 286 286 286 286 286 286 286 286 287 287 288 287 288 289 288 288 287 287 287 287 286 285 284 284 283 283 282 282 282 281 281 281 279 280 281 281 282 282 282 282 281 281 281 281
302 301 301 302 302 301 300 300 301 301 300 300 299 298 297 298 297 296 294 293 294 294 295 295 293 292 292 291 290 290 290 290 289 288 287 287 287 287 286 286 286 285 285 285 285 285 285 285 286 287 287 288 288 288 289 288 287 287 286 286 286 285 284 283 283 283 282 282 282 282 281 280 280 280 280 281 282 282 283 283 282 281 281 281 281
301 302 301 301 301 300 300 300 299 300 300 299 298 297 297 297 297 295 294 294 294 294 294 294 293 293 292 291 290 290 290 289 289 287 286 286 286 286 285 285 285 285 285 285 284 284 285 285 286 287 288 288 288 288 288 287 287 287 286 285 285 284 283 283 282 282 282 282 282 281 281 280 279 279 280 281 282 282 282 281 280 280 280 281 281
302 302 303 301 301 301 301 301 301 299 298 298 297 297 296 295 295 295 294 294 294 294 294 294 293 293 292 292 291 290 289 289 288 287 286 286 286 286 285 285 285 285 285 285 285 285 285 285 286 287 287 288 288 288 287 287 287 286 285 284 284 283 282 282 281 281 281 281 281 280 279 279 279 279 280 281 282 283 281 280 278 279 279 280 280
304 302 302 302 302 301 301 300 298 298 297 297 297 296 295 294 293 293 293 293 293 293 294 294 293 293 292 292 291 290 289 287 287 286 286 286 286 285 285 285 285 285 284 284 284 284 284 285 285 286 286 287 287 287 287 286 286 286 284 283 283 282 282 281 281 281 280 280 280 280 279 278 279 279 280 282 282 281 280 279 278 278 278 278 278
296 296 297 297 298 298 297 298 297 296 297 296 295 295 294 293 292 292 292 292 292 292 294 294 294 293 292 292 291 290 288 287 286 286 286 286 286 285 285 285 284 284 283 284 283 283 284 285 285 285 286 286 286 286 286 286 286 285 283 283 282 282 281 280 280 280 280 279 279 279 279 279 279 279 281 282 281 281 279 279 278 277 276 276 278
297 298 298 297 298 297 296 295 296 295 295 295 294 294 293 292 292 292 291 291 291 292 293 293 294 293 292 291 290 289 288 287 287 287 286 286 285 285 284 284 284 284 283 283 282 282 282 284 285 285 285 286 286 285 286 286 285 284 283 283 282 282 280 279 279 278 279 279 278 279 279 279 280 281 281 281 281 280 280 279 278 277 276 276 278
294 292 293 294 293 294 294 295 295 295 294 294 293 293 291 292 291 292 291 291 291 292 294 294 294 294 292 291 289 288 288 287 287 286 286 286 285 284 283 283 284 283 282 282 281 282 281 282 283 284 284 285 285 285 285 285 284 284 283 282 282 281 280 279 279 278 277 277 277 277 278 279 281 281 281 280 280 281 280 280 279 277 276 276 278
292 293 288 291 292 294 294 295 294 293 292 292 292 292 291 291 291 290 290 291 292 293 292 292 291 290 290 289 288 287 287 287 287 286 286 284 284 283 283 282 282 282 281 281 281 280 281 281 281 283 283 284 285 285 285 285 284 284 283 282 281 281 280 279 278 277 278 277 277 277 278 279 281 280 280 280 280 280 280 279 278 277 277 278 278
289 287 289 291 291 291 291 291 291 291 292 291 292 291 291 291 290 289 291 293 292 292 291 290 289 288 288 287 286 287 286 286 285 285 283 283 283 283 282 282 281 281 280 280 280 280 280 279 280 281 282 283 284 284 284 284 284 283 283 282 280 281 281 279 278 277 277 277 277 278 278 279 280 279 279 280 280 280 279 278 277 277 277 276 275
290 291 290 291 291 290 289 289 289 289 290 289 289 289 289 289 289 290 291 291 291 291 290 289 288 287 286 286 286 285 285 284 284 284 283 282 281 281 281 281 280 280 279 278 278 279 278 278 278 279 280 281 283 284 284 283 283 283 283 283 282 281 281 279 278 277 277 277 278 278 278 279 279 279 279 279 279 278 277 277 276 275 275 274 273
288 287 288 289 289 288 288 287 288 289 289 289 288 288 288 288 289 290 290 289 289 289 288 287 286 286 285 285 284 284 284 284 283 283 282 281 280 280 280 280 280 279 279 278 278 278 278 277 277 278 279 280 281 282 283 283 283 283 283 283 282 282 282 279 279 278 278 278 277 278 278 279 279 278 279 278 277 276 276 275 274 273 272 272 272
287 287 286 288 289 288 287 286 287 287 288 288 288 287 287 287 288 288 287 287 287 286 286 285 285 285 284 283 283 283 283 283 283 283 281 280 279 279 279 279 279 279 279 278 278 278 278 277 278 277 278 278 279 280 281 282 283 283 284 283 283 283 282 280 278 278 278 278 278 279 279 279 278 278 277 276 275 274 273 273 272 271 270 271 272
286 286 285 286 287 286 286 285 285 286 287 287 287 287 286 287 286 287 286 286 285 285 285 284 284 283 282 282 282 281 281 282 282 282 282 281 280 279 279 279 279 279 279 279 278 278 278 278 278 278 278 277 278 278 279 281 282 282 283 283 283 283 281 280 278 277 278 278 279 279 279 278 277 276 274 273 272 272 271 270 270 269 270 270 270
285 283 284 286 286 285 285 284 284 284 285 285 285 285 285 285 285 285 285 285 285 285 283 282 282 282 281 281 281 281 281 280 281 282 282 281 280 280 280 279 279 279 279 279 279 278 278 278 278 278 277 277 276 277 278 279 280 281 281 282 282 281 281 280 277 277 278 278 278 277 276 276 274 274 272 271 270 269 268 269 269 269 269 269 269
282 282 282 284 284 284 284 283 283 283 282 281 281 281 282 283 283 283 283 284 283 283 283 282 281 280 280 281 281 277 279 280 280 280 281 280 280 280 280 279 279 280 279 279 279 278 278 278 278 278 276 275 275 275 276 276 278 279 280 281 281 280 279 278 276 277 278 277 276 275 274 272 271 270 269 268 268 268 268 267 268 268 268 268 267
283 281 281 284 283 282 282 281 280 279 280 279 279 279 280 281 281 282 283 283 283 281 280 279 279 279 280 280 280 279 280 280 279 279 281 281 280 280 280 280 281 282 282 281 280 279 280 280 280 278 276 275 274 274 275 278 277 280 279 279 278 278 278 277 277 278 273 272 271 270 269 269 269 268 268 268 268 267 267 266 264 266 267 267 267
280 280 280 280 280 281 280 279 277 277 277 278 277 277 278 278 280 281 282 282 280 280 279 278 279 279 279 279 279 279 279 279 279 278 278 278 277 279 280 281 280 281 281 281 282 281 281 281 280 280 279 277 276 277 278 280 279 280 280 280 279 279 279 277 278 278 273 270 270 269 269 268 269 268 268 268 268 268 267 266 266 267 266 266 266
281 281 280 279 278 278 278 277 276 276 276 276 275 275 276 276 278 280 281 280 280 281 280 278 278 279 278 279 278 278 278 278 278 278 278 277 278 278 279 279 279 280 280 280 280 280 281 281 281 280 280 280 280 279 279 280 280 280 281 281 280 279 279 278 278 274 271 269 269 268 268 268 268 269 268 269 268 267 267 266 266 266 266 265 265
Wind_Speed
6 8 8 10 12 13 14 13 14 16 16 15 15 16 16 14 13 13 11 12 10 9 9 9 10 9 8 9 9 8 8 8 7 7 6 7 7 7 6 6 7 7 7 7 7 6 6 5 6 7 7 6 6 6 5 5 3 4 3 2 3 3 1 1 1 3 4 5 4 2 0 2 2 2 2 4 2 2 4 4 4 5 6 7 7
7 6 8 10 10 13 12 13 13 16 16 17 18 17 16 15 14 13 11 12 12 12 10 10 10 10 8 8 7 7 8 9 9 9 10 6 8 7 7 7 8 7 8 8 7 7 7 7 7 6 6 5 4 3 5 4 3 3 2 2 2 3 2 1 2 4 3 4 5 2 1 3 2 3 1 4 2 2 3 4 4 5 6 6 6
9 10 9 10 12 13 12 13 13 15 14 16 17 18 17 16 16 15 13 13 13 13 12 11 10 10 11 9 10 8 9 10 11 11 9 8 8 8 7 7 7 8 9 8 7 7 8 7 7 6 6 4 4 6 5 5 5 5 5 4 3 2 2 1 2 3 4 4 3 4 1 2 4 3 2 1 2 2 2 3 4 5 6 6 6
11 11 13 12 12 12 12 12 14 13 14 13 14 15 16 16 15 16 15 14 13 14 12 13 12 12 12 12 11 11 9 11 12 11 9 9 9 8 8 7 8 8 8 7 5 5 6 7 7 8 9 6 5 6 6 5 5 4 5 5 4 3 3 2 0 2 3 4 1 1 1 2 2 4 4 1 1 1 2 3 3 5 7 7 5
11 10 10 11 12 14 15 14 13 14 15 15 14 14 12 16 16 15 14 15 15 14 15 13 12 11 11 10 7 4 1 6 9 9 10 9 9 9 7 7 8 9 10 10 9 8 7 7 8 9 8 7 6 6 5 5 5 5 6 6 5 3 3 1 1 2 2 3 4 2 2 2 2 3 6 3 1 2 2 2 3 5 7 7 5
11 11 11 13 13 13 13 13 14 14 14 15 14 15 15 14 15 14 12 12 14 16 16 14 12 12 11 10 9 9 11 9 10 10 9 9 9 8 7 9 9 8 9 11 10 9 9 8 8 8 7 6 6 5 4 5 6 6 5 4 3 2 4 2 1 2 1 2 3 3 4 3 3 3 3 2 2 2 2 3 4 5 7 6 5
11 10 8 10 12 12 14 14 16 15 16 14 14 16 17 15 14 15 14 12 13 14 16 14 14 13 14 13 11 11 11 10 9 9 10 10 9 10 9 9 9 9 10 10 9 9 8 7 7 7 6 5 4 5 5 6 6 5 4 3 2 2 1 3 4 3 2 1 1 2 2 2 2 3 2 2 3 1 2 4 5 6 8 7 6
10 12 13 13 12 14 16 17 15 17 15 13 14 14 16 17 15 15 13 12 11 12 16 16 15 15 15 15 13 13 12 12 11 11 12 10 10 11 10 7 9 9 9 9 8 8 7 7 6 5 5 5 6 5 6 6 5 4 4 3 3 2 2 4 4 4 4 3 1 1 1 1 1 1 2 2 2 4 4 0 1 4 5 4 6
12 10 12 14 15 15 15 13 16 15 13 14 14 13 13 14 14 13 13 13 12 15 14 18 16 16 15 14 14 12 13 11 10 10 11 11 11 11 11 8 7 8 8 7 6 7 7 7 8 8 7 6 4 5 5 6 6 5 5 3 2 2 3 3 4 4 3 3 4 2 2 3 3 2 2 0 2 3 4 3 5 5 3 1 2
10 13 12 11 12 12 11 9 9 12 10 10 9 9 10 11 14 15 15 13 13 15 15 17 19 15 16 16 16 14 12 11 11 10 11 11 12 11 10 7 5 5 6 6 6 7 8 9 9 9 8 7 4 4 4 5 4 3 2 2 3 4 4 5 4 3 2 2 1 3 4 4 4 3 2 2 3 4 3 5 5 6 7 4 2
10 12 12 12 7 7 6 12 12 7 7 10 10 11 11 12 14 16 17 13 13 15 15 17 18 17 17 18 18 17 15 13 11 10 10 10 11 10 9 7 6 6 6 7 6 7 7 7 7 6 6 5 5 5 4 4 3 4 4 4 5 6 6 6 5 5 4 3 2 2 3 2 1 2 2 2 2 2 3 3 4 3 6 7 1
9 9 11 11 8 8 6 10 11 10 8 10 10 10 11 13 13 15 16 17 15 18 18 17 18 18 18 18 18 17 16 14 13 12 11 11 11 9 7 6 6 6 7 6 4 3 3 4 5 5 4 4 4 3 3 4 4 5 5 5 6 6 6 7 6 6 5 4 3 2 2 2 2 2 2 1 1 1 2 4 4 5 4 4 5
7 9 8 7 10 11 11 11 8 10 11 12 12 12 12 13 15 16 16 16 17 18 19 20 20 18 18 18 17 15 16 16 15 14 13 12 11 9 7 7 6 6 7 7 6 6 4 4 5 4 5 5 6 6 6 7 6 6 6 6 6 7 6 6 5 5 5 4 4 3 3 3 3 2 1 1 1 1 1 3 3 2 5 7 4
7 7 7 7 8 7 8 8 9 9 11 10 11 11 11 11 14 16 16 15 16 17 18 19 20 18 17 17 17 15 16 15 15 14 14 13 11 11 9 8 8 7 8 9 8 7 5 5 5 5 5 7 7 7 7 6 6 7 7 7 7 4 5 6 6 6 5 5 4 4 3 3 2 1 1 0 0 1 1 3 4 4 5 6 5
6 6 8 8 7 7 7 8 8 9 10 10 9 10 10 11 13 15 14 15 16 17 17 19 17 17 17 16 16 15 14 14 13 12 13 13 11 12 7 7 8 8 8 7 9 8 5 5 5 6 7 7 8 7 5 6 7 6 6 7 5 4 5 5 6 6 5 5 4 4 4 3 2 1 1 1 0 1 1 1 4 7 6 3 5
5 6 7 8 7 7 7 7 8 8 10 9 11 10 10 12 12 14 15 14 15 16 17 17 17 15 17 17 17 14 8 11 12 11 11 12 12 10 10 8 7 9 7 7 7 7 6 5 5 6 8 7 6 7 7 6 7 6 6 6 6 3 5 6 6 5 5 6 5 5 4 3 2 2 1 1 1 0 0 0 1 2 6 9 7
4 6 7 6 6 7 8 9 8 9 9 10 11 11 12 11 12 13 13 13 15 16 15 14 15 15 16 16 15 12 13 13 12 13 13 12 13 10 12 11 10 9 6 8 9 7 7 6 6 7 8 7 6 6 6 6 6 6 6 7 7 5 6 6 5 5 5 5 5 4 4 4 3 3 2 2 1 1 0 0 0 1 1 4 7
5 7 8 7 7 7 7 7 8 8 9 8 9 9 9 10 10 12 12 14 15 13 14 14 14 15 15 16 15 14 14 13 12 12 12 11 10 7 8 9 9 8 6 6 8 9 8 6 6 8 9 7 7 6 6 6 6 5 6 6 6 6 6 5 4 5 5 5 5 4 4 4 3 3 3 2 1 1 1 1 0 0 1 2 3
7 7 6 5 6 6 6 6 6 6 6 7 6 7 7 8 10 13 14 14 13 11 11 10 13 10 9 11 12 12 12 11 11 11 12 11 12 10 9 10 7 6 7 6 7 7 6 6 6 8 7 7 7 7 7 6 6 7 6 6 6 6 6 6 4 5 4 5 5 5 4 4 4 4 3 3 2 2 1 1 1 1 1 1 2
5 4 5 5 5 6 6 5 5 6 6 6 7 7 8 9 11 11 11 12 12 12 10 11 11 10 9 9 9 9 9 10 9 10 11 12 12 11 11 10 8 8 7 8 8 8 8 6 5 8 7 6 7 6 6 6 6 6 6 6 6 6 6 6 5 4 3 5 5 5 4 4 3 3 3 2 2 2 1 1 1 1 1 1 2
5 4 5 5 6 5 5 5 5 6 7 7 8 9 8 8 9 11 12 12 11 10 9 10 9 9 10 10 10 10 10 10 11 11 12 12 11 10 11 8 9 9 11 8 8 8 8 7 8 8 8 7 8 7 6 6 6 7 6 7 7 6 7 6 6 6 4 4 4 5 5 3 2 3 3 2 2 2 1 1 1 1 1 1 1
4 4 4 5 5 5 4 4 5 6 7 8 7 8 9 9 8 8 10 10 10 9 8 8 7 7 9 9 10 8 8 9 11 11 11 10 10 10 11 9 11 9 10 10 9 8 7 8 9 9 8 8 8 8 7 6 7 8 7 5 6 7 7 7 6 6 5 3 4 6 5 4 2 3 2 2 2 1 1 1 1 0 1 0 1
6 5 4 4 4 3 3 4 6 8 8 8 8 8 8 8 8 8 8 9 9 9 8 8 8 7 7 6 6 7 7 9 10 9 10 9 10 9 10 12 10 9 8 6 9 9 8 8 9 9 10 8 8 8 7 7 7 8 9 7 6 6 7 8 7 7 6 5 5 5 4 3 2 3 2 2 1 1 0 0 0 0 1 1 2
4 4 4 3 2 1 2 5 6 6 7 7 7 6 6 6 7 7 8 8 8 8 8 8 8 8 6 6 7 7 8 9 10 8 9 8 8 9 9 10 11 9 10 8 7 8 8 9 9 9 9 9 9 7 7 7 8 8 8 9 7 6 6 6 7 7 6 5 6 5 4 4 3 3 2 2 1 0 0 0 0 1 1 2 2
5 4 4 3 3 4 5 5 5 6 6 7 7 7 7 7 7 8 8 8 8 7 8 8 9 7 7 8 9 8 9 9 9 7 8 8 8 9 7 10 12 10 10 9 7 5 9 10 9 10 10 9 9 9 8 7 7 6 7 7 7 6 6 6 6 6 6 6 5 5 5 4 3 3 3 2 1 1 1 0 1 1 1 2 2
4 3 3 5 4 3 3 4 4 4 7 8 8 7 7 7 8 8 6 5 5 5 6 7 7 10 9 9 8 8 9 9 8 7 8 8 8 8 8 8 11 12 13 10 10 7 8 10 9 10 10 9 8 8 8 8 8 7 6 6 6 7 6 6 6 6 6 5 5 5 4 4 3 3 3 2 2 1 1 1 0 1 1 2 3
4 3 3 3 4 6 6 6 5 5 6 7 7 7 7 4 5 5 6 6 6 6 7 7 8 9 9 9 8 8 7 7 7 7 7 8 8 8 9 11 10 11 13 11 8 9 7 10 9 9 9 9 8 8 7 7 8 7 7 7 8 7 7 6 6 6 6 5 5 5 4 3 3 3 3 2 2 2 1 0 1 0 2 2 3
3 4 5 6 6 6 7 7 6 6 5 6 6 6 6 6 6 5 5 6 5 7 7 7 7 7 8 8 8 6 7 7 7 7 8 8 9 8 8 6 9 11 11 11 11 10 8 8 9 8 7 7 8 8 8 8 7 7 7 7 8 8 7 7 7 6 6 5 5 5 4 3 3 2 2 2 2 1 1 1 1 0 2 3 3
3 5 5 6 7 7 7 7 7 6 7 7 7 6 5 5 6 6 6 6 6 6 6 6 5 7 7 7 5 4 4 7 7 8 8 8 8 9 9 9 8 8 6 6 8 9 11 9 7 8 8 6 7 7 6 8 8 8 7 8 8 8 8 8 8 7 6 6 5 5 4 4 4 5 6 4 4 2 1 1 1 1 2 3 4
4 5 6 6 7 7 7 7 7 9 9 8 8 10 9 9 8 6 6 6 5 5 6 5 6 5 4 5 5 6 6 6 7 8 8 8 8 8 9 9 9 9 6 5 8 8 8 10 10 8 7 6 5 4 9 13 10 9 8 7 6 7 7 8 8 8 6 6 5 5 5 7 6 5 5 4 4 3 2 2 1 2 2 3 4
6 6 4 4 5 6 6 7 9 10 11 10 9 9 10 10 8 7 7 6 6 6 5 6 6 4 4 4 5 5 6 7 7 6 7 9 9 8 8 9 10 8 7 8 8 10 8 8 9 9 9 6 5 6 12 11 10 11 9 8 8 7 7 7 7 7 7 7 6 6 6 6 6 5 4 3 2 3 3 2 0 2 2 3 3
9 6 4 3 5 6 8 10 10 10 10 9 9 8 9 11 9 9 7 6 6 6 6 6 5 6 6 6 6 5 6 7 7 8 8 8 8 9 9 10 9 6 6 7 9 9 9 8 7 8 8 7 6 10 14 14 13 11 8 8 7 7 6 6 6 6 6 6 6 6 5 3 2 3 3 4 3 2 1 0 1 2 2 3 4
8 7 7 7 7 8 8 7 7 8 9 11 8 8 10 11 11 9 7 8 8 7 7 6 6 7 7 7 7 8 7 7 8 8 9 9 9 9 7 6 5 6 8 8 8 9 8 8 9 10 8 8 7 13 14 15 13 12 10 9 6 6 6 6 6 6 6 6 6 5 5 4 4 4 3 2 2 2 6 5 1 2 3 3 5
5 5 6 7 5 4 4 6 7 8 9 7 9 10 7 7 9 7 9 8 8 8 8 8 7 7 7 8 8 8 9 8 8 8 8 9 9 10 5 5 5 6 7 7 7 9 9 9 8 9 8 8 9 13 15 15 14 13 11 8 7 7 6 6 6 6 5 6 6 6 6 5 5 4 4 3 2 1 0 1 2 2 2 3 4
7 8 8 7 6 5 6 7 8 8 6 6 7 6 5 7 9 9 9 8 8 8 8 7 7 7 8 8 8 8 8 8 9 7 5 7 9 6 7 6 7 7 7 8 8 8 8 7 7 6 8 8 8 15 15 16 15 14 13 8 7 6 6 6 5 5 5 5 5 5 5 5 5 4 4 2 1 1 1 1 1 2 3 3 3
9 11 9 7 8 9 7 6 4 5 6 6 7 7 7 7 8 9 8 8 8 7 7 8 8 8 9 9 9 8 8 8 9 9 9 9 8 9 9 6 6 4 3 4 4 4 7 6 5 6 8 9 9 16 16 16 16 15 13 7 7 7 6 6 6 6 5 5 4 5 5 5 5 4 5 3 0 1 1 1 2 2 3 4 4
8 5 6 6 5 5 4 3 4 5 6 7 6 8 8 7 9 9 8 8 8 9 9 9 9 9 9 9 9 10 9 8 8 9 9 9 9 9 4 6 6 6 6 6 5 6 6 7 9 7 7 8 10 14 16 17 17 17 11 6 6 5 5 6 6 6 5 5 4 5 5 5 5 4 4 2 1 0 1 2 2 3 3 4 5
3 1 1 3 3 1 3 4 5 5 5 6 7 8 8 7 8 9 9 9 8 9 9 8 9 8 9 9 8 9 8 8 8 9 9 7 3 3 5 5 6 7 7 6 6 6 5 5 9 7 9 11 9 14 17 17 17 16 9 7 6 6 6 6 5 5 4 4 5 7 6 5 5 4 5 2 2 2 2 2 3 4 4 4 4
6 5 6 6 4 2 3 3 4 5 6 7 8 9 9 8 8 9 10 10 10 10 8 7 7 7 7 6 7 7 7 8 9 8 8 8 8 6 4 5 4 4 5 5 5 6 6 5 5 8 11 10 9 13 16 17 17 15 10 6 6 6 6 6 6 5 5 4 5 6 7 6 5 4 4 3 3 3 3 3 4 4 5 5 4
1 2 2 2 0 2 2 5 5 4 6 8 8 8 8 8 7 7 9 10 10 8 9 8 6 7 7 7 5 6 6 7 8 7 6 6 4 6 6 5 5 5 6 5 5 6 8 6 6 7 6 7 10 10 13 17 16 15 12 6 5 6 7 7 6 6 6 5 5 5 6 9 8 6 5 5 4 4 3 3 4 4 5 5 4
1 2 1 2 2 2 2 2 2 4 6 7 7 7 7 7 7 6 7 6 5 6 6 6 6 6 7 7 6 6 7 6 6 7 5 6 5 6 7 7 6 5 5 6 6 6 5 5 5 4 4 4 6 10 12 17 15 15 14 10 6 6 6 7 7 6 6 6 6 5 5 9 8 6 6 6 5 4 4 4 4 5 4 5 6
2 3 1 1 2 3 4 3 2 4 5 6 7 6 6 6 6 6 6 5 6 6 6 7 7 7 6 6 6 6 6 6 6 8 9 6 4 7 8 7 5 6 9 9 6 6 6 5 4 4 3 4 6 9 12 15 16 16 15 14 6 6 7 8 7 6 6 5 6 6 6 9 9 7 7 6 5 5 4 4 4 4 5 6 4
3 2 3 2 4 5 4 3 2 3 4 3 5 5 3 4 6 4 4 5 6 6 6 6 5 6 6 7 6 7 7 6 7 8 10 8 7 7 7 6 8 8 8 9 6 5 5 5 5 4 4 4 5 7 13 13 16 16 16 15 10 6 11 6 7 8 7 6 6 6 6 10 9 9 8 7 6 5 5 4 3 2 3 4 3
2 2 3 3 5 4 5 4 3 3 3 2 4 5 4 4 2 4 5 4 5 5 4 5 5 5 6 6 6 6 6 5 6 6 6 7 7 6 6 6 6 6 7 7 6 6 6 6 7 6 6 6 5 5 9 13 14 17 15 15 13 12 13 6 4 4 5 6 6 7 7 12 10 9 8 7 6 4 3 3 1 0 1 1 1
2 3 2 2 4 6 6 6 4 4 3 2 2 4 5 4 2 4 3 4 5 6 6 6 6 6 6 5 6 5 5 5 5 7 7 7 7 7 7 5 6 6 6 7 7 7 8 7 7 7 7 7 6 5 5 11 16 16 17 15 14 14 14 12 6 4 5 6 7 10 11 11 10 9 9 8 5 4 2 1 1 2 1 1 1
3 4 4 2 5 6 7 7 6 5 3 2 2 3 5 3 3 4 3 5 7 7 6 7 6 5 6 7 8 6 6 5 6 5 6 6 8 8 7 7 7 7 7 7 7 8 7 7 7 7 7 8 7 6 6 7 11 14 14 17 16 16 15 13 7 5 8 9 12 12 12 11 9 8 5 4 3 2 2 2 3 3 0 0 1
3 3 2 2 3 5 6 7 7 5 4 3 5 3 2 3 3 3 5 6 6 6 6 6 5 5 5 5 7 6 6 5 5 5 5 6 6 7 7 8 8 8 8 8 7 8 8 8 8 7 6 6 7 7 7 9 11 11 11 12 13 13 15 13 7 7 9 9 10 9 8 8 6 7 6 5 4 3 2 1 1 1 0 0 1
3 4 2 4 5 6 6 7 7 6 5 4 5 5 4 3 3 4 4 5 5 5 5 5 5 5 4 5 4 7 7 5 6 6 6 6 6 6 8 9 10 10 10 9 9 9 10 10 10 7 6 5 6 7 8 9 12 12 12 12 12 11 12 11 9 9 9 10 9 9 9 6 5 4 4 2 2 2 1 1 1 1 1 0 2
4 4 5 5 5 7 7 7 5 4 4 5 5 5 5 5 3 3 4 5 4 5 5 5 4 3 3 3 3 4 4 5 5 4 4 5 7 8 8 6 6 5 5 7 9 8 8 6 6 9 10 8 6 9 13 14 11 14 13 14 14 13 12 11 11 12 8 7 7 6 5 5 5 5 4 3 3 3 2 2 1 1 1 1 2
4 4 5 8 7 8 8 8 5 3 4 4 5 5 5 4 3 3 3 6 5 4 4 3 2 3 3 3 3 3 3 3 4 4 4 2 3 3 3 2 5 5 5 5 3 4 3 3 4 6 7 10 12 8 8 20 16 19 17 13 6 8 11 8 12 17 9 6 7 6 6 6 6 5 5 4 4 4 4 3 3 3 2 1 1
3 6 7 7 6 6 7 9 4 4 4 5 5 5 5 5 4 3 3 5 5 3 3 2 2 2 2 2 2 3 3 2 2 3 3 3 2 2 5 5 4 0 1 3 4 4 2 6 5 6 6 12 11 3 11 18 19 20 20 18 15 15 14 13 17 12 7 6 7 7 6 5 5 5 5 5 4 5 5 4 4 3 3 3 3
Wind_Direction
218 209 196 200 207 212 214 213 213 212 213 212 211 212 212 210 207 213 211 211 211 204 202 197 201 203 207 204 208 205 212 217 216 216 220 216 205 202 197 204 207 203 204 198 206 226 233 234 230 232 236 237 242 249 264 272 276 286 296 296 269 261 150 237 270 302 309 321 327 286 315 80 81 153 150 27 56 75 26 23 24 20 16 3 355
218 201 203 203 206 207 207 214 210 212 216 216 215 213 213 211 210 210 207 207 210 208 202 198 201 199 193 200 199 208 211 217 224 222 223 215 208 204 201 202 204 199 202 208 208 226 228 230 226 229 230 231 238 257 263 260 244 233 227 211 220 235 206 342 9 307 305 326 320 326 170 136 78 163 141 25 63 81 30 33 16 18 13 356 347
227 223 203 205 205 204 206 213 214 212 211 210 216 219 216 213 214 211 207 205 208 207 204 204 203 204 204 204 199 207 218 224 225 225 209 206 200 198 197 199 199 202 204 210 216 212 223 219 223 229 220 204 222 241 239 227 223 212 201 204 157 208 154 25 354 355 315 310 251 248 117 199 159 165 194 63 90 78 50 41 17 5 6 357 345
232 214 205 201 200 203 205 209 211 210 215 212 207 207 217 217 214 212 211 209 208 207 205 207 204 205 210 217 215 217 223 221 227 225 217 215 212 193 196 195 198 204 202 203 212 211 211 224 228 231 236 221 228 243 227 234 219 198 187 188 181 182 211 172 15 354 331 323 252 356 37 287 172 125 6 125 133 81 78 55 31 10 1 0 352
228 224 207 196 198 203 205 207 206 211 215 213 206 202 209 209 209 206 206 207 209 205 201 204 205 208 213 216 220 212 33 223 221 224 224 221 221 213 198 188 202 212 212 209 211 209 205 223 239 240 240 234 231 233 233 223 204 189 175 166 192 251 243 215 97 19 10 341 328 268 193 198 53 359 326 150 164 107 104 53 70 25 360 358 356
228 226 208 198 203 205 206 204 205 210 213 212 209 207 209 211 207 202 201 203 205 206 203 199 201 199 198 191 194 204 216 212 210 207 203 204 204 206 204 193 196 203 218 223 217 216 224 231 231 235 235 227 212 210 181 165 167 165 173 175 188 245 297 218 180 93 64 24 21 31 6 357 0 16 309 65 14 103 32 45 55 32 1 348 353
229 238 224 205 207 203 205 205 208 210 214 207 209 212 210 211 206 201 202 204 201 198 199 196 201 200 197 199 201 206 214 219 215 213 215 209 206 206 204 196 192 200 213 217 222 224 226 221 220 220 215 205 180 166 161 164 160 159 166 197 185 153 188 235 211 162 120 93 45 18 19 14 347 301 8 313 336 81 39 12 5 9 359 346 352
214 219 219 219 211 204 208 207 205 211 207 200 208 209 207 207 204 203 204 204 196 188 195 201 202 204 206 208 210 214 212 217 209 216 220 213 205 206 205 195 201 215 211 210 216 213 207 196 186 181 169 164 157 162 157 158 153 148 174 158 145 162 216 222 202 186 222 148 181 172 138 193 219 253 357 347 310 301 316 0 149 354 344 346 349
216 217 216 212 209 210 209 204 208 209 203 205 208 205 204 207 209 208 209 206 204 194 194 204 207 207 205 207 212 216 219 221 218 215 214 209 201 204 201 189 184 203 210 196 187 199 189 182 168 159 150 144 154 153 152 165 172 169 174 185 221 208 203 197 181 192 215 152 153 151 166 149 133 127 113 10 257 278 290 320 321 327 296 205 352
221 227 227 221 219 218 214 214 205 206 202 208 209 207 206 205 207 206 209 208 206 200 196 202 209 208 208 208 210 212 212 216 215 209 210 208 208 194 188 182 173 166 178 181 182 189 184 173 168 164 151 149 152 138 139 143 145 144 178 208 207 186 174 180 186 159 134 105 185 156 159 146 155 158 178 207 220 228 281 304 326 329 334 332 302
215 222 227 230 219 221 212 224 229 207 197 210 213 210 210 210 212 211 212 209 207 204 198 200 209 211 213 211 208 208 207 210 203 200 197 197 204 188 178 176 167 170 167 176 176 179 170 161 160 150 137 141 144 149 163 158 129 136 130 138 164 168 167 142 135 136 134 137 157 178 166 184 162 172 162 190 230 224 270 288 315 317 305 308 337
219 219 229 224 216 217 203 222 218 209 194 204 208 203 205 209 210 215 216 215 215 216 210 209 211 213 215 213 210 209 206 208 199 197 194 196 197 185 178 165 166 168 178 160 137 153 154 133 117 124 131 139 147 153 134 139 164 167 155 152 145 143 142 149 148 146 148 136 144 139 124 111 100 108 134 211 229 310 285 297 315 324 289 264 292
219 220 222 206 211 212 206 218 201 203 207 205 202 201 203 205 205 210 214 210 215 213 213 211 211 213 211 212 212 209 209 207 202 201 197 195 193 183 173 173 159 165 174 159 158 164 167 147 147 147 154 162 153 173 176 173 172 163 154 150 149 152 157 156 144 138 144 143 137 120 115 111 105 110 186 186 205 270 268 310 321 296 295 303 305
221 224 228 223 216 217 215 215 208 212 212 206 203 201 202 202 204 209 214 204 210 213 212 212 213 213 211 211 211 210 211 208 206 204 199 200 195 187 177 171 170 176 177 170 165 170 179 171 157 145 138 143 158 167 171 163 151 159 157 156 148 136 126 122 114 119 120 128 139 133 116 112 121 147 151 169 106 302 336 341 318 299 257 285 304
219 220 222 223 224 221 219 216 212 211 211 207 204 204 203 206 205 210 213 204 205 211 212 213 214 213 211 212 212 212 211 206 206 204 199 196 194 189 172 169 169 174 183 161 145 165 167 157 150 145 144 142 155 153 145 146 147 149 146 143 129 124 120 117 122 133 137 142 129 120 123 122 131 138 139 101 107 16 0 1 342 339 334 295 313
241 243 240 232 221 219 222 222 220 215 210 204 205 203 202 205 205 212 215 208 205 209 211 212 212 211 212 212 213 212 201 205 204 198 198 195 190 181 185 175 181 166 164 145 146 148 163 155 159 149 139 139 149 150 147 143 149 142 133 131 122 122 127 122 125 131 130 130 121 122 126 125 132 135 121 103 105 36 13 27 336 341 342 329 330
264 262 265 255 232 224 221 218 216 212 210 206 203 196 199 199 204 212 215 216 213 214 212 209 210 210 212 212 211 210 205 202 199 195 195 194 192 185 187 187 185 181 145 155 150 155 157 167 155 139 150 159 146 149 147 140 142 138 133 129 127 130 122 124 129 134 131 130 122 133 127 131 130 128 128 136 138 159 143 27 337 336 320 310 330
232 245 251 244 238 231 220 216 215 214 210 207 204 195 194 196 202 209 212 214 213 208 205 205 205 209 210 209 208 206 206 202 199 196 194 190 188 169 176 173 185 172 145 152 150 148 162 175 145 143 157 157 148 143 142 140 140 128 124 120 119 124 117 119 127 131 131 123 126 130 133 126 131 132 118 129 140 132 150 151 153 241 279 302 311
221 227 237 242 240 245 232 215 211 218 212 205 193 182 183 191 201 207 207 209 209 205 205 207 209 208 205 203 202 203 203 200 200 197 192 187 184 180 171 178 160 148 148 146 148 136 150 168 140 128 143 143 137 141 142 144 141 127 122 118 123 128 130 132 132 127 126 132 136 133 130 122 127 128 135 138 145 166 142 170 175 197 237 250 285
262 258 255 254 251 239 228 217 209 209 202 199 195 188 186 186 193 199 206 207 208 204 200 204 206 207 204 200 202 203 200 199 194 188 191 191 182 178 171 167 165 159 159 159 145 143 155 156 132 128 134 135 137 136 146 141 136 127 127 130 137 136 133 134 132 126 131 139 139 132 128 128 138 142 137 129 126 109 139 169 185 211 201 240 265
253 261 265 259 249 233 206 201 212 205 201 194 190 191 183 181 188 195 197 200 205 205 202 207 203 205 198 197 197 199 197 198 198 194 192 189 183 174 176 165 155 166 163 155 149 146 152 146 134 138 143 145 144 144 148 149 134 130 124 130 140 141 137 132 129 129 132 136 132 120 114 113 134 144 131 140 130 134 165 178 173 225 230 200 269
255 257 261 261 251 233 206 178 199 202 198 187 181 181 185 187 189 189 199 203 202 204 207 208 209 207 203 198 199 195 192 191 193 196 194 182 178 178 166 157 166 159 169 149 152 150 142 139 136 142 143 144 148 149 154 149 139 132 131 137 149 149 137 132 135 140 141 131 126 119 119 123 126 121 128 135 137 159 183 178 187 225 306 302 308
286 277 260 257 245 243 224 202 199 204 203 193 183 186 186 189 189 194 196 202 202 203 204 207 211 211 205 195 185 188 184 188 189 188 188 178 173 162 158 160 153 153 172 160 146 147 146 136 134 143 144 149 151 152 157 147 141 140 144 152 156 151 142 142 144 145 142 134 123 121 130 138 151 141 131 118 130 148 172 151 20 328 323 322 305
280 278 267 252 244 225 219 218 211 207 206 203 200 197 195 193 196 197 204 204 201 203 203 202 207 208 194 182 186 183 183 186 190 184 177 168 157 156 162 151 152 154 161 159 138 136 136 138 139 144 148 151 151 151 152 147 143 146 148 151 154 146 140 142 140 143 142 135 130 130 143 155 155 135 136 137 131 132 193 117 46 350 299 310 310
282 283 284 282 248 216 212 210 209 208 209 207 207 205 201 202 199 201 206 208 207 204 202 199 197 186 175 175 179 182 187 188 183 170 167 156 155 154 165 154 153 159 154 146 150 133 137 143 149 154 153 156 155 153 147 142 141 143 144 144 143 135 133 132 134 132 129 126 131 134 143 149 152 143 155 163 137 169 141 112 4 335 317 315 289
298 289 280 269 261 257 241 221 214 209 209 213 215 214 211 210 207 204 195 185 189 180 186 179 180 181 178 182 167 179 187 182 171 164 159 156 151 156 160 154 164 152 153 151 155 161 148 150 151 151 151 150 147 149 145 145 146 142 137 133 128 128 128 127 125 121 123 125 133 133 136 142 157 166 154 149 156 141 122 96 35 349 327 301 298
290 290 281 281 263 247 237 226 219 208 210 216 219 219 214 205 200 188 181 185 183 183 186 184 173 191 161 189 183 186 177 169 167 159 152 151 155 156 162 166 162 162 153 149 154 152 152 146 146 142 147 145 145 144 141 143 143 141 139 134 132 128 128 125 121 120 120 124 126 127 129 138 147 150 153 151 145 152 134 131 114 343 305 312 306
239 235 236 240 235 233 231 225 215 211 197 213 221 222 213 203 198 195 182 190 192 192 192 191 185 183 186 169 177 173 168 164 155 150 158 159 156 156 158 157 154 161 157 151 155 151 139 136 139 139 139 140 141 143 145 145 143 142 138 137 137 136 133 127 122 122 125 123 122 123 126 129 135 143 144 129 134 145 162 178 121 353 325 326 318
248 241 231 226 232 224 221 222 219 205 201 200 210 214 217 210 208 201 186 194 187 184 183 181 182 179 175 172 164 155 143 145 146 147 150 156 157 155 152 156 160 156 156 108 117 132 135 133 129 134 142 145 150 154 154 153 144 142 140 139 140 139 139 134 130 128 127 126 126 122 128 121 97 84 70 70 70 43 222 139 22 13 341 332 326
244 227 217 215 226 229 219 212 213 212 206 197 198 207 205 204 206 203 199 182 163 186 171 174 182 184 165 158 158 150 146 141 147 153 155 151 149 152 153 156 155 149 149 134 123 126 137 140 141 143 147 149 151 141 158 154 150 145 144 139 136 140 140 139 137 135 132 130 130 124 110 109 115 101 95 102 111 100 63 28 14 340 336 330 312
269 269 229 213 221 232 231 220 219 211 210 202 200 196 201 204 202 188 193 173 171 173 177 176 182 163 151 139 146 153 149 149 151 143 143 151 152 149 152 150 146 139 144 148 138 139 145 143 142 146 150 149 142 149 155 149 142 143 141 141 143 140 141 140 142 144 143 141 138 138 138 140 135 134 119 113 126 136 126 111 38 343 331 315 302
262 260 254 234 223 219 224 227 220 214 210 207 201 190 194 204 195 190 183 166 175 174 176 179 170 155 154 156 151 142 153 151 148 155 154 153 149 152 157 155 146 141 146 142 146 148 147 146 138 139 144 147 144 153 155 149 150 147 140 140 138 139 143 142 142 141 140 145 149 150 145 141 133 126 148 154 160 195 196 170 312 306 297 293 289
238 243 241 232 222 213 217 220 221 219 214 215 196 179 199 199 192 185 158 171 181 177 173 173 166 164 164 161 156 156 155 157 160 158 157 151 154 156 144 142 145 143 142 150 151 146 148 147 146 147 146 145 143 160 153 149 148 149 142 135 133 138 139 143 142 140 145 149 151 150 146 146 134 158 179 172 181 188 196 218 270 244 258 272 281
238 251 246 243 232 240 236 234 230 226 220 205 191 200 193 180 184 165 165 177 177 182 179 177 170 169 166 162 160 162 164 164 155 156 150 155 161 165 152 140 129 145 156 149 149 152 150 153 151 143 141 146 147 157 148 149 150 149 143 129 128 132 133 136 138 141 147 150 157 157 154 156 157 167 163 176 176 191 228 256 261 303 295 278 270
247 249 237 235 235 233 230 226 227 224 211 191 199 187 152 168 180 175 181 177 185 178 186 179 175 175 169 166 167 168 167 159 161 160 151 162 168 145 148 158 162 162 161 161 157 155 153 146 142 141 139 142 146 151 150 150 150 148 142 127 127 128 128 130 134 141 144 147 151 150 150 151 157 165 156 153 174 239 276 266 302 296 294 288 292
222 225 216 206 208 209 211 216 195 191 197 194 188 164 166 169 181 187 185 186 183 186 185 180 183 180 177 177 170 168 163 163 165 168 170 172 170 168 166 160 158 155 139 129 140 136 147 141 137 136 135 138 148 155 153 153 152 150 140 128 136 136 135 136 138 145 149 147 150 152 152 158 163 158 157 187 229 308 242 229 272 279 279 287 282
248 195 199 208 209 194 189 155 165 183 181 190 165 163 171 160 181 187 184 185 187 194 194 190 189 182 182 179 176 172 170 168 168 168 177 176 173 172 158 159 155 159 155 161 147 149 148 146 154 155 143 141 152 160 157 157 155 150 143 135 137 134 135 140 147 148 148 150 156 163 164 165 167 159 167 201 130 291 181 216 255 264 273 279 278
339 24 306 232 239 207 134 170 164 175 179 157 160 164 162 159 176 182 181 192 195 203 199 192 195 187 187 182 180 175 169 168 170 181 180 178 150 135 152 168 160 153 158 153 147 139 148 156 160 162 163 154 156 162 161 159 157 157 145 141 146 141 140 144 145 150 149 157 162 172 175 172 168 161 179 193 170 170 183 215 241 257 266 268 272
207 210 210 215 229 191 146 149 161 173 170 162 160 159 163 173 174 181 187 192 201 203 194 190 192 186 184 174 174 174 175 172 178 182 176 171 171 167 125 154 150 137 130 136 140 144 147 163 177 159 162 156 151 161 163 162 160 158 149 145 146 144 145 154 153 155 162 164 168 179 191 189 175 170 184 186 187 188 193 216 229 243 251 257 262
359 316 290 310 325 125 144 174 188 167 146 159 156 165 173 169 173 169 189 200 200 193 195 191 177 178 178 178 177 175 175 174 176 169 166 162 129 134 156 153 143 150 147 149 152 155 151 160 160 173 169 162 156 158 164 164 163 162 160 152 154 150 159 160 161 163 167 177 178 181 188 196 182 185 187 192 195 199 202 219 223 231 241 252 280
302 288 339 218 198 189 159 164 127 128 145 151 159 158 173 173 163 176 197 192 172 165 157 158 154 159 176 184 181 176 170 166 165 163 135 137 142 146 145 152 142 141 144 150 152 150 150 148 163 164 165 159 159 156 166 168 167 168 169 165 169 175 157 155 160 167 177 173 175 183 186 189 186 188 190 196 194 191 199 202 212 223 248 279 295
335 328 301 159 128 96 85 76 80 134 142 152 154 162 166 155 165 191 191 160 151 152 154 157 159 171 172 167 169 162 160 157 148 145 145 136 136 144 156 155 148 148 156 163 152 155 157 151 146 152 155 159 166 167 167 173 174 175 177 177 174 181 171 152 155 171 174 177 179 179 181 181 184 187 191 194 188 185 181 193 212 256 285 293 290
3 39 31 80 98 65 59 64 69 100 132 142 147 154 146 152 184 175 140 147 152 153 153 149 154 160 165 165 163 159 156 153 154 157 155 144 144 150 156 150 155 156 159 158 154 148 143 143 147 164 171 179 174 174 174 175 180 179 183 188 188 169 170 164 166 174 179 174 178 177 173 173 179 185 188 185 173 161 180 194 218 262 289 296 276
50 31 17 58 95 89 93 72 83 103 112 117 148 144 151 156 143 123 134 133 135 142 136 145 149 146 145 152 152 153 148 141 153 145 142 139 149 142 145 159 153 152 154 154 165 161 160 159 166 169 178 185 187 180 181 182 183 185 185 189 190 185 179 177 181 165 159 175 174 178 171 174 177 177 174 161 150 162 182 171 161 349 330 286 246
48 34 27 63 109 119 111 88 71 83 87 87 96 134 133 143 130 136 134 137 133 136 146 136 142 148 150 141 142 141 140 139 142 150 146 149 144 149 157 161 159 168 165 166 168 171 176 174 176 179 180 181 181 183 180 189 188 188 191 190 192 189 186 180 172 160 169 181 178 168 166 168 171 171 153 144 153 158 155 168 86 62 48 230 236
70 64 45 76 106 108 107 99 72 57 69 65 69 120 137 148 134 146 138 119 137 143 146 148 143 140 136 133 128 127 133 141 150 163 159 160 158 166 165 163 174 180 178 173 168 174 180 181 187 184 182 176 174 175 181 182 191 194 197 197 195 195 192 190 170 166 178 176 171 166 163 163 157 155 151 157 156 141 139 86 81 73 132 231 245
53 29 18 78 87 95 87 85 73 47 45 43 52 38 73 113 130 127 114 132 141 146 129 127 134 128 134 145 149 155 152 152 160 162 166 166 168 171 168 170 180 179 181 182 175 179 185 189 193 188 173 163 169 180 179 185 193 194 195 195 196 199 196 187 176 178 180 178 169 163 160 160 167 164 139 133 127 128 155 174 153 111 100 248 256
44 37 38 72 71 85 80 73 65 41 35 38 40 38 32 56 80 81 110 118 119 123 134 138 137 140 150 163 161 157 156 161 173 171 169 173 179 185 184 187 184 181 178 185 184 188 192 190 191 178 156 161 182 188 194 191 191 187 189 189 191 190 190 185 184 182 180 168 162 154 146 145 145 144 148 146 159 169 164 182 177 143 133 279 271
61 33 43 78 86 83 76 74 59 31 41 40 38 33 27 36 47 63 105 107 101 94 93 98 123 133 146 159 158 162 179 167 165 181 193 184 180 189 196 211 216 202 194 181 185 198 203 201 176 166 168 182 189 201 213 198 184 182 175 178 185 191 190 187 188 174 144 132 133 140 147 161 177 176 170 172 171 182 184 155 161 206 170 188 222
83 83 83 86 82 96 95 84 66 48 53 55 50 37 32 34 37 34 59 99 107 108 110 123 133 146 140 161 164 168 176 166 166 179 183 217 331 316 305 224 211 222 258 298 316 245 234 207 202 215 197 181 188 218 200 188 189 191 193 190 180 167 172 170 183 173 156 148 163 166 175 177 176 178 179 180 184 185 183 182 180 182 184 190 215
123 103 79 80 88 94 89 79 63 51 52 49 48 28 28 21 26 31 59 97 119 123 120 120 147 168 166 173 161 161 170 174 173 171 178 186 192 204 239 266 311 322 226 243 258 283 257 226 217 221 221 258 295 24 154 187 192 196 196 196 193 190 177 175 171 156 168 176 172 178 181 181 181 178 183 183 179 183 185 176 177 180 184 183 207